Location: Table Mountain
(47.2500°N, 120.5778°W)
Time: 04:36:20
(UTC-07:00)

Vanguard 3 - All Passes

Search period start: 17 October 2017 00:00
Search period end: 27 October 2017 00:00
Orbit: 510 x 3263 km, 33.3° (Epoch: 16 October)

Date Brightness Start Highest point End Pass type
(mag) Time Alt. Az. Time Alt. Az. Time Alt. Az.
17 Oct - 04:20:40 10° S 04:26:34 14° SSE 04:31:18 10° SE visible
17 Oct - 06:31:03 10° SW 06:38:49 24° S 06:44:05 10° ESE visible
17 Oct - 08:44:41 10° WSW 08:50:07 22° SSW 08:53:59 10° SE daylight
18 Oct - 03:10:39 10° SSE 03:12:15 10° SSE 03:13:46 10° SE visible
18 Oct - 05:16:09 10° SSW 05:24:56 22° SSE 05:31:00 10° ESE visible
18 Oct - 07:29:17 10° SW 07:36:49 26° S 07:41:47 10° SE daylight
18 Oct - 09:43:54 10° WSW 09:47:35 16° SSW 09:50:30 10° SSE daylight
19 Oct - 04:01:53 10° SSW 04:10:41 19° SSE 04:17:14 10° ESE visible
19 Oct - 06:13:46 10° SW 06:23:10 28° S 06:29:13 10° ESE visible
19 Oct - 08:28:11 10° WSW 08:34:34 24° SSW 08:38:57 10° SE daylight
20 Oct - 02:49:04 10° S 02:56:12 15° SSE 03:02:05 10° ESE visible
20 Oct - 04:58:23 10° SW 05:09:07 27° SSE 05:16:14 10° ESE visible
20 Oct - 07:12:24 10° WSW 07:21:12 30° S 07:26:47 10° SE daylight
20 Oct - 09:27:42 10° WSW 09:31:59 17° SSW 09:35:17 10° SSE daylight
21 Oct - 03:43:33 10° SSW 03:54:42 24° SSE 04:02:37 10° ESE visible
21 Oct - 05:56:30 10° SW 06:07:24 32° S 06:14:14 10° ESE visible
21 Oct - 08:11:35 10° WSW 08:18:57 26° SSW 08:23:50 10° SE daylight
22 Oct - 02:29:50 10° S 02:40:01 19° SSE 02:48:00 10° ESE visible
22 Oct - 04:40:43 10° SW 04:53:11 32° SSE 05:01:15 10° ESE visible
22 Oct - 06:55:27 10° WSW 07:05:29 33° S 07:11:42 10° SE visible
22 Oct - 09:11:24 10° WSW 09:16:19 17° SSW 09:20:01 10° S daylight
23 Oct - 01:18:39 10° SSE 01:25:14 13° SE 01:31:04 10° ESE visible
23 Oct - 03:25:28 10° SSW 03:38:34 28° SSE 03:47:42 10° ESE visible
23 Oct - 05:39:12 10° WSW 05:51:33 36° S 05:59:08 10° ESE visible
23 Oct - 07:54:54 10° WSW 08:03:15 27° SSW 08:08:39 10° SE daylight
24 Oct - 02:11:14 10° SSW 02:23:42 23° SSE 02:33:18 10° ESE visible
24 Oct - 04:23:08 10° SW 04:37:08 36° S 04:46:08 10° ESE visible
24 Oct - 06:38:26 10° WSW 06:49:41 35° SSW 06:56:33 10° SE visible
24 Oct - 08:55:00 10° WSW 09:00:33 18° SW 09:04:40 10° S daylight
25 Oct - 00:58:49 10° S 01:08:45 17° SE 01:17:18 10° ESE visible
25 Oct - 03:07:35 10° SW 03:22:19 33° SSE 03:32:34 10° ESE visible
25 Oct - 05:21:55 10° WSW 05:35:34 40° S 05:43:56 10° ESE visible
25 Oct - 07:38:07 10° WSW 07:47:25 28° SSW 07:53:24 10° SSE daylight
26 Oct - 01:53:00 10° SSW 02:07:14 27° SSE 02:18:14 10° ESE visible
26 Oct - 04:05:37 10° SW 04:20:57 40° S 04:30:52 10° ESE visible
26 Oct - 06:21:22 10° WSW 06:33:45 37° SSW 06:41:19 10° SE visible
26 Oct - 08:38:31 10° WSW 08:44:41 18° SW 08:49:13 10° S daylight
